Location: Paris
(48.6709°N, 2.3750°E)
Time: 20:39:13
(UTC+01:00)

ISS - Pass Details

Date: 30 October 2021
Orbit: 417 x 422 km, 51.6° (Epoch: 04 December)

Event Time Altitude Azimuth Distance (km) Brightness Sun altitude
Exits shadow 05:44:20 19° 71° (ENE) 1,061 -1.0 -28.4°
Drops below altitude 10° 05:45:26 10° 70° (ENE) 1,501 0.0 -28.2°
Enters shadow 06:41:23 -69° 257° (WSW) 12,361 3.6 -19.0°
